Flag for Canada Weather past 2 weeks in Saguenay, Quebec, Canada

Now
35 °F

Chilly.


Feels Like: 35 °F
Forecast: 31 / 48 °F
Wind: No wind

Location: Jonquiere Airport

Current Time: Oct 21, 2014 at 9:52:58 PM

Latest Report: Oct 21, 2014 at 9:00 PM


Visibility: N/A

Pressure: 30.33 "Hg

Humidity: 85%

Dew point: 31 °F

Location of SaguenayLocation

Historic Weather in Saguenay — Graph

°F

Saguenay temperature yesterday

Maximum temperature yesterday: 41 °F (at 4:00 PM)
Minimum temperature yesterday: 33 °F (at 1:00 AM)
Average temperature yesterday: 36 °F

Past Weeks' High & Low Weather Summary

 TemperatureHumidityPressure
High72 °F (Oct 15, 12:00 AM)100% (Oct 12, 2:00 AM)30.32 "Hg (Oct 12, 2:00 AM)
Low29 °F (Oct 21, 5:00 AM)38% (Oct 13, 4:00 PM)29.36 "Hg (Oct 17, 4:00 PM)
Average47 °F79%29.88 "Hg
* Reported Oct 6 8:00 PM — Oct 21 8:00 PM, Saguenay, Weather by CustomWeather, © 2014

Note: Actual official high and low records may vary slightly from our data, if they occured in-between our weather recording intervals... More about our weather records

Advertising

Saguenay weather history for previous 24 hours

 ConditionsComfort  
Time TempWeatherWind HumidityBarometerVisibility
8:00 PM
Oct 21
37 °FChilly.2 mph77%30.32 "HgN/A
7:00 PM39 °FChilly.5 mph70%30.30 "HgN/A
6:00 PM40 °FQuite cool.5 mph67%30.28 "HgN/A
5:00 PM43 °FQuite cool.7 mph62%30.25 "HgN/A
4:00 PM44 °FQuite cool.5 mph56%30.23 "HgN/A
3:00 PM46 °FCool.6 mph54%30.21 "HgN/A
2:00 PM42 °FQuite cool.7 mph58%30.20 "HgN/A
1:00 PM44 °FQuite cool.7 mph57%30.20 "HgN/A
12:00 PM41 °FQuite cool.5 mph62%30.20 "HgN/A
11:00 AM38 °FChilly.5 mph72%30.19 "HgN/A
10:00 AM37 °FChilly.3 mph75%30.18 "HgN/A
9:00 AM34 °FChilly.3 mph79%30.16 "HgN/A
8:00 AM32 °FChilly.6 mph85%30.14 "HgN/A
7:00 AM30 °FChilly.2 mph88%30.12 "HgN/A
6:00 AM29 °FChilly.1 mph88%30.10 "HgN/A
5:00 AM29 °FChilly.2 mph89%30.08 "HgN/A
4:00 AM29 °FChilly.1 mph84%30.06 "HgN/A
3:00 AM31 °FChilly.1 mph79%30.04 "HgN/A
2:00 AM31 °FChilly.6 mph79%30.03 "HgN/A
1:00 AM32 °FChilly.1 mph76%30.03 "HgN/A
12:00 AM31 °FChilly.2 mph79%30.01 "HgN/A
11:00 PM
Oct 20
33 °FChilly.1 mph73%30.01 "HgN/A
10:00 PM33 °FChilly.2 mph74%30.00 "HgN/A
9:00 PM35 °FChilly.7 mph70%29.98 "HgN/A
Weather by CustomWeather, © 2014

See weather overviewHow to use our weather pages